星链-3250 (STARLINK-3250 )

导读

STARLINK-3250是美国SpaceX星链星座的成员,于2021年12月2日发射,属于星链互联网卫星系列。该卫星旨在为全球提供低延迟、高速率的宽带互联网服务,尤其覆盖偏远与网络基础设施匮乏区域,依托低轨运行设计,提升全球网络接入的覆盖广度与服务稳定性,是星链全球组网进程中的一颗组网卫星。

Basic Information
目录编号:
49749
目录名称:
STARLINK-3250
国际标识:
2021-115AB
轨道中心:
EARTH
卫星名称:
星链-3250
卫星全名:
星链-3250 (STARLINK-3250 )
卫星状态:
在轨 (已飞行1737 天)
发射日期:
2021-12-02 UTC
国别 :
美国 (US)
星等 :
--
Orbit Information
数据来源 国际轨道数据 AOE轨道数据
星历时间 2026-09-04T06:37:53+0800
15小时前
查看轨道信息
2026-09-03T18:00:00+0800
1天前
查看轨道信息
半长轴 6848.873km 6848.813km
偏心率 0.0001123 0.0001192
轨道倾角 53.160° 53.159°
近地点辐角 81.422° 66.314°
升交点赤经 56.950° 59.403°
平近点角 278.690° 270.084°
近地点 469.966km 469.859km
远地点 471.506km 471.493km
周期 94.013分钟 94.012分钟
每日圈数 15.317014 15.317215
Detailed Information
固有亮度:
5
最大亮度:
2.5
卫星平台:
Starlink v1.5
覆盖范围:
全球
运营商:
太空探索技术公司
运营商所在国:
美国
制造商(研发单位):
太空探索技术公司
制造商所在国:
美国
使用方式:
暂无
Satellite Introduction
星链(Starlink)计划是由太空探索技术公司(SpaceX)提出的一个巨型低轨卫星互联网星座项目,计划在2019年至2024年间在太空搭建由约1.2万颗卫星组成的“星链”网络,其中1584颗将部署在地球上空550千米处的近地轨道,并从2020年开始工作。该卫星仍在工作。
2D Orbit Map
3D Orbit Map
Orbit Altitude Analysis Chart
Orbit Inclination Analysis Chart
Orbit Comprehensive Analysis Chart
View Comprehensive Chart
Conjunction Data List
Event ID Objects TCA Miss Dist (km) Collision Risk Probability Collision Risk Index (CRI) Action
CDM_260829-214404-974906-489522
OBJECT V (64895)
2026-08-29T
21:44:43+0000
2.671 km
极远距离
1.495282E-6 低风险 0.38
CDM_260905-072004-974906-811321
2026-09-05T
07:20:17+0000
2.857 km
极远距离
1.407783E-6 低风险 0.38
CDM_260829-170204-974906-488322
OBJECT H (64883)
2026-08-29T
17:02:36+0000
2.913 km
极远距离
1.319876E-6 低风险 0.37
CDM_260906-002503-884204-974921
PSLV DEB (38842)
2026-09-06T
00:25:35+0000
2.788 km
极远距离
1.168864E-6 低风险 0.36